When you browse on this site, cookies collect data to enhance your experience and personalize the content and advertising you see.
Visit our Privacy Policy to learn more. By continuing to use the site, you agree to this use of cookies and data.
  • In Spain
  • List of Countries
  • For 7 days
  • Water Temperature
  • Weather Map
  • Weather Widgets
  • user-avatar
    Login

    Hourly Weather Mayrhofen

    Today, 29 May, Friday

    Time Temperature Precipitation Wind Pressure Humidity
    00:00 +1°C° 0 mm 1 mps 620 mmHg 94%
    01:00 +1°C° 0 mm 1 mps 620 mmHg 94%
    02:00 0°C° 0 mm 1 mps 620 mmHg 94%
    03:00 0°C° 0 mm 1 mps 620 mmHg 94%
    04:00 -1°C° 0 mm 1 mps 620 mmHg 94%
    05:00 +1°C° 0 mm 1 mps 620 mmHg 90%
    06:00 +2°C° 0 mm 1 mps 621 mmHg 85%
    07:00 +4°C° 0 mm 1 mps 621 mmHg 81%
    08:00 +5°C° 0 mm 1 mps 621 mmHg 72%
    09:00 +7°C° 0 mm 1 mps 622 mmHg 63%
    10:00 +9°C° 0 mm 1 mps 622 mmHg 54%
    11:00 +9°C° 0 mm 2 mps 622 mmHg 52%
    12:00 +9°C° 0 mm 2 mps 622 mmHg 51%
    13:00 +10°C° 0 mm 2 mps 622 mmHg 49%
    14:00 +10°C° 0 mm 2 mps 621 mmHg 51%
    15:00 +10°C° 0 mm 2 mps 621 mmHg 52%
    16:00 +10°C° 0 mm 3 mps 620 mmHg 54%
    17:00 +9°C° 0 mm 2 mps 620 mmHg 62%
    18:00 +7°C° 0 mm 2 mps 619 mmHg 70%
    19:00 +6°C° 0 mm 2 mps 619 mmHg 78%
    20:00 +4°C° 0 mm 2 mps 618 mmHg 84%
    21:00 +4°C° 0 mm 1 mps 618 mmHg 90%
    22:00 +2°C° 0 mm 1 mps 618 mmHg 96%
    23:00 +2°C° 0 mm 1 mps 618 mmHg 95%

    Tomorrow, 30 May, Saturday

    Time Temperature Precipitation Wind Pressure Humidity
    00:00 +2°C° 0 mm 1 mps 618 mmHg 95%
    01:00 +2°C° 0 mm 1 mps 618 mmHg 95%
    02:00 +2°C° 0 mm 1 mps 617 mmHg 94%
    03:00 +2°C° 0 mm 1 mps 617 mmHg 94%
    04:00 +2°C° 0 mm 1 mps 617 mmHg 93%
    05:00 +3°C° 0 mm 1 mps 617 mmHg 89%
    06:00 +4°C° 0 mm 1 mps 618 mmHg 86%
    07:00 +5°C° 0 mm 1 mps 618 mmHg 82%
    08:00 +5°C° 0 mm 2 mps 618 mmHg 75%
    09:00 +6°C° 0 mm 2 mps 619 mmHg 68%
    10:00 +8°C° 0 mm 2 mps 619 mmHg 61%
    11:00 +8°C° 0 mm 2 mps 619 mmHg 57%
    12:00 +9°C° 0 mm 3 mps 619 mmHg 53%
    13:00 +10°C° 0 mm 3 mps 619 mmHg 49%
    14:00 +9°C° 0 mm 3 mps 619 mmHg 52%
    15:00 +9°C° 0 mm 3 mps 619 mmHg 55%
    16:00 +9°C° 0 mm 3 mps 618 mmHg 58%
    17:00 +8°C° 0 mm 3 mps 618 mmHg 64%
    18:00 +7°C° 0 mm 2 mps 618 mmHg 71%
    19:00 +5°C° 0 mm 2 mps 617 mmHg 78%
    20:00 +4°C° 0 mm 2 mps 617 mmHg 83%
    21:00 +4°C° 0 mm 1 mps 617 mmHg 89%
    22:00 +3°C° 0 mm 1 mps 617 mmHg 94%
    23:00 +2°C° 0 mm 1 mps 617 mmHg 94%

    Day after tomorrow, 31 May, Sunday

    Time Temperature Precipitation Wind Pressure Humidity
    00:00 +2°C° 0 mm 1 mps 617 mmHg 95%
    01:00 +2°C° 0 mm 1 mps 616 mmHg 95%
    02:00 +1°C° 0 mm 1 mps 616 mmHg 95%
    03:00 +1°C° 0 mm 1 mps 616 mmHg 94%
    04:00 +1°C° 0 mm 1 mps 616 mmHg 94%
    05:00 +2°C° 0 mm 1 mps 616 mmHg 88%
    06:00 +4°C° 0 mm 1 mps 617 mmHg 82%
    07:00 +5°C° 0 mm 1 mps 618 mmHg 76%
    08:00 +6°C° 0 mm 2 mps 618 mmHg 69%
    09:00 +8°C° 0 mm 2 mps 618 mmHg 62%
    10:00 +9°C° 0 mm 2 mps 619 mmHg 55%
    11:00 +10°C° 0 mm 2 mps 619 mmHg 52%
    12:00 +11°C° 0 mm 3 mps 619 mmHg 48%
    13:00 +12°C° 0 mm 3 mps 619 mmHg 45%
    14:00 +11°C° 0 mm 3 mps 619 mmHg 47%
    15:00 +11°C° 0 mm 3 mps 619 mmHg 49%
    16:00 +10°C° 0 mm 3 mps 619 mmHg 52%
    17:00 +9°C° 0 mm 3 mps 619 mmHg 58%
    18:00 +8°C° 0 mm 3 mps 618 mmHg 65%
    19:00 +5°C° 0 mm 3 mps 618 mmHg 72%
    20:00 +5°C° 0 mm 2 mps 618 mmHg 78%
    21:00 +3°C° 0 mm 2 mps 617 mmHg 85%
    22:00 +2°C° 0 mm 2 mps 617 mmHg 91%
    23:00 +2°C° 0 mm 1 mps 617 mmHg 89%

    1 June, Monday

    Time Temperature Precipitation Wind Pressure Humidity
    00:00 +2°C° 0 mm 1 mps 616 mmHg 88%
    01:00 +2°C° 0 mm 1 mps 616 mmHg 86%
    02:00 +2°C° 0 mm 1 mps 616 mmHg 87%
    03:00 +2°C° 0 mm 1 mps 616 mmHg 87%
    04:00 +2°C° 0 mm 1 mps 616 mmHg 88%
    05:00 +4°C° 0 mm 1 mps 616 mmHg 82%
    06:00 +6°C° 0 mm 1 mps 617 mmHg 77%
    07:00 +8°C° 0 mm 1 mps 618 mmHg 71%
    08:00 +8°C° 0 mm 2 mps 618 mmHg 66%
    09:00 +10°C° 0 mm 2 mps 619 mmHg 61%
    10:00 +13°C° 0 mm 2 mps 619 mmHg 56%
    11:00 +13°C° 0 mm 2 mps 619 mmHg 55%
    12:00 +14°C° 0 mm 2 mps 619 mmHg 55%
    13:00 +13°C° 0 mm 3 mps 619 mmHg 54%
    14:00 +13°C° 0 mm 3 mps 619 mmHg 55%
    15:00 +13°C° 0 mm 3 mps 618 mmHg 57%
    16:00 +13°C° 0 mm 3 mps 618 mmHg 58%
    17:00 +13°C° 0.1 mm 2 mps 618 mmHg 65%
    18:00 +12°C° 0.1 mm 2 mps 618 mmHg 72%
    19:00 +10°C° 0.1 mm 2 mps 617 mmHg 78%
    20:00 +9°C° 0 mm 1 mps 617 mmHg 84%
    21:00 +7°C° 0 mm 1 mps 616 mmHg 89%
    22:00 +5°C° 0 mm 1 mps 616 mmHg 95%
    23:00 +4°C° 0 mm 1 mps 615 mmHg 94%

    2 June, Tuesday

    Time Temperature Precipitation Wind Pressure Humidity
    00:00 +4°C° 0 mm 1 mps 615 mmHg 94%
    01:00 +4°C° 0 mm 1 mps 615 mmHg 93%
    02:00 +4°C° 0 mm 1 mps 615 mmHg 92%
    03:00 +4°C° 0 mm 1 mps 615 mmHg 92%
    04:00 +4°C° 0 mm 1 mps 614 mmHg 91%
    05:00 +6°C° 0 mm 1 mps 615 mmHg 87%
    06:00 +8°C° 0 mm 1 mps 616 mmHg 82%
    07:00 +10°C° 0 mm 1 mps 617 mmHg 78%
    08:00 +11°C° 0 mm 1 mps 617 mmHg 70%
    09:00 +13°C° 0 mm 1 mps 618 mmHg 62%
    10:00 +15°C° 0 mm 1 mps 618 mmHg 55%
    11:00 +15°C° 0.3 mm 2 mps 618 mmHg 54%
    12:00 +16°C° 0.3 mm 2 mps 618 mmHg 54%
    13:00 +16°C° 0.3 mm 2 mps 618 mmHg 53%
    14:00 +16°C° 0.4 mm 2 mps 617 mmHg 54%
    15:00 +16°C° 0.4 mm 2 mps 617 mmHg 55%
    16:00 +15°C° 0.4 mm 2 mps 616 mmHg 56%
    17:00 +14°C° 0.2 mm 2 mps 616 mmHg 64%
    18:00 +12°C° 0.2 mm 2 mps 615 mmHg 71%
    19:00 +10°C° 0.2 mm 2 mps 614 mmHg 79%
    20:00 +9°C° 0 mm 2 mps 614 mmHg 83%
    21:00 +7°C° 0 mm 2 mps 614 mmHg 87%
    22:00 +5°C° 0 mm 3 mps 613 mmHg 91%
    23:00 +5°C° 0 mm 3 mps 613 mmHg 92%

    3 June, Wednesday

    Time Temperature Precipitation Wind Pressure Humidity
    00:00 +5°C° 0 mm 3 mps 613 mmHg 92%
    01:00 +4°C° 0 mm 3 mps 613 mmHg 93%
    02:00 +4°C° 0 mm 3 mps 613 mmHg 93%
    03:00 +4°C° 0 mm 3 mps 613 mmHg 93%
    04:00 +5°C° 0 mm 2 mps 613 mmHg 92%
    05:00 +6°C° 0 mm 2 mps 613 mmHg 88%
    06:00 +7°C° 0 mm 2 mps 614 mmHg 84%
    07:00 +8°C° 0 mm 2 mps 614 mmHg 80%
    08:00 +9°C° 0 mm 2 mps 615 mmHg 71%
    09:00 +12°C° 0 mm 2 mps 615 mmHg 63%
    10:00 +14°C° 0 mm 2 mps 616 mmHg 55%
    11:00 +14°C° 0 mm 2 mps 616 mmHg 51%
    12:00 +15°C° 0 mm 2 mps 616 mmHg 47%
    13:00 +16°C° 0 mm 2 mps 617 mmHg 43%
    14:00 +16°C° 0.1 mm 2 mps 616 mmHg 45%
    15:00 +16°C° 0.1 mm 2 mps 616 mmHg 47%
    16:00 +16°C° 0.1 mm 2 mps 616 mmHg 49%
    17:00 +14°C° 0.1 mm 2 mps 616 mmHg 57%
    18:00 +13°C° 0.1 mm 2 mps 615 mmHg 66%
    19:00 +12°C° 0.1 mm 2 mps 615 mmHg 74%
    20:00 +9°C° 0.1 mm 2 mps 615 mmHg 79%
    21:00 +8°C° 0.1 mm 2 mps 614 mmHg 85%
    22:00 +6°C° 0.1 mm 2 mps 614 mmHg 90%
    23:00 +6°C° 0 mm 2 mps 614 mmHg 91%
    Show more